Dundee, United Kingdom

6:35 PM BST on August 20, 2017 (GMT +0100)
Dundee

Weather History for EGPN - September, 2013

Change the Weather History Date:

Wednesday, September 4, 2013

  Actual Average Record
Temperature  
Mean Temperature 60 °F -  
Max Temperature 68 °F 59 °F 68 °F (2003)
Min Temperature 53 °F 50 °F 46 °F (2008)
Degree Days  
Heating Degree Days 4    
Growing Degree Days 10 (Base 50)    
Moisture  
Dew Point 54 °F    
Average Humidity 72    
Maximum Humidity 94    
Minimum Humidity 56    
Precipitation  
Precipitation 0.00 in - - ()
Sea Level Pressure  
Sea Level Pressure 29.99 in    
Wind  
Wind Speed 8 mph ()    
Max Wind Speed 16 mph    
Max Gust Speed -    
Visibility 6.2 miles    
Events      
Averages and records for this station are not official NWS values.
T = Trace of Precipitation, MM = Missing Value Source: Averaged Metar Reports

Daily Weather History Graph

Daily Weather History Graph

Search for Another Location

Airport or City:

Trip Planner

Search our weather history database for the weather conditions in past years. The results will help you decide how hot, cold, wet, or windy it might be!

Date:

Astronomy

Sep. 04, 2013 Rise Set
Actual Time 6:21 AM BST 7:59 PM BST
Civil Twilight 5:42 AM BST 8:38 PM BST
Nautical Twilight 4:52 AM BST 9:27 PM BST
Astronomical Twilight 3:55 AM BST 10:23 PM BST
Moon 5:17 AM BST (9/4) 7:06 PM BST (9/4)
Length of Visible Light 14h 56m
Length of Day
13h 37m
Waning Crescent, 1% of the Moon is Illuminated
Sep 4
Waning Crescent
Sep 5
New
Sep 12
First Quarter
Sep 19
Full
Sep 27
Last Quarter

Hourly Weather History & Observations

Time (BST) Temp. Dew Point Humidity Pressure Visibility Wind Dir Wind Speed Gust Speed Precip Events Conditions
7:20 AM 55.4 °F 53.6 °F 94% 30.09 in 6.2 mi WNW 1.2 mph - N/A   Scattered Clouds
7:50 AM 53.6 °F 50.0 °F 88% 30.09 in 6.2 mi West 3.5 mph - N/A   Scattered Clouds
8:20 AM 57.2 °F 53.6 °F 88% 30.06 in 6.2 mi WNW 3.5 mph - N/A   Scattered Clouds
8:50 AM 59.0 °F 55.4 °F 88% 30.06 in 6.2 mi SW 8.1 mph - N/A   Scattered Clouds
9:20 AM 60.8 °F 55.4 °F 82% 30.06 in 6.2 mi SW 6.9 mph - N/A   Mostly Cloudy
9:50 AM 60.8 °F 55.4 °F 82% 30.06 in 6.2 mi WSW 8.1 mph - N/A   Mostly Cloudy
10:20 AM 62.6 °F 55.4 °F 77% 30.06 in 6.2 mi WSW 5.8 mph - N/A   Scattered Clouds
10:50 AM 64.4 °F 55.4 °F 73% 30.04 in 6.2 mi SW 9.2 mph - N/A   Scattered Clouds
11:20 AM 64.4 °F 55.4 °F 73% 30.04 in 6.2 mi SW 11.5 mph - N/A   Scattered Clouds
11:50 AM 64.4 °F 57.2 °F 77% 30.04 in 6.2 mi SW 12.7 mph - N/A   Partly Cloudy
12:20 PM 66.2 °F 53.6 °F 64% 30.04 in 6.2 mi SW 11.5 mph - N/A   Partly Cloudy
12:50 PM 64.4 °F 53.6 °F 68% 30.01 in 6.2 mi WSW 12.7 mph - N/A   Partly Cloudy
1:20 PM 64.4 °F 53.6 °F 68% 30.01 in 6.2 mi WSW 12.7 mph - N/A   Partly Cloudy
1:50 PM 64.4 °F 53.6 °F 68% 30.01 in 6.2 mi SW 10.4 mph - N/A   Partly Cloudy
2:50 PM 66.2 °F 53.6 °F 64% 29.98 in 6.2 mi WSW 11.5 mph - N/A   Partly Cloudy
3:20 PM 68.0 °F 51.8 °F 56% 29.98 in 6.2 mi West 8.1 mph - N/A   Partly Cloudy
3:50 PM 66.2 °F 53.6 °F 64% 29.95 in 6.2 mi SW 12.7 mph - N/A   Partly Cloudy
4:20 PM 68.0 °F 55.4 °F 64% 29.95 in 6.2 mi SW 12.7 mph - N/A   Partly Cloudy
4:50 PM 68.0 °F 57.2 °F 68% 29.95 in 6.2 mi SW 11.5 mph - N/A   Partly Cloudy
5:20 PM 68.0 °F 55.4 °F 64% 29.92 in 6.2 mi SW 12.7 mph - N/A   Partly Cloudy
5:50 PM 68.0 °F 55.4 °F 64% 29.92 in 6.2 mi SW 15.0 mph - N/A   Partly Cloudy
6:20 PM 66.2 °F 53.6 °F 64% 29.92 in 6.2 mi SSW 13.8 mph - N/A   Partly Cloudy
6:50 PM 66.2 °F 53.6 °F 64% 29.92 in 6.2 mi SSW 13.8 mph - N/A   Partly Cloudy
7:20 PM 66.2 °F 53.6 °F 64% 29.92 in 6.2 mi SW 16.1 mph - N/A   Partly Cloudy
8:20 PM 64.4 °F 53.6 °F 68% 29.92 in 6.2 mi SW 12.7 mph - N/A   Partly Cloudy
8:50 PM 62.6 °F 53.6 °F 72% 29.92 in 6.2 mi SW 13.8 mph - N/A   Partly Cloudy
9:20 PM 59.0 °F 51.8 °F 77% 29.92 in 6.2 mi West 6.9 mph - N/A   Partly Cloudy
9:50 PM 60.8 °F 51.8 °F 72% 29.92 in 6.2 mi WSW 9.2 mph - N/A   Partly Cloudy